Home > Weather > São Paulo > Past weeks

Flag for Brazil Weather for the Past 2 Weeks in São Paulo, São Paulo, Brazil

Now
64 °F

Sunny.


Feels Like: 64 °F
Forecast: 52 / 66 °F
Wind: 6 mph from Southwest

Location: Sao Paulo Airport

Current Time: May 1, 2016 at 1:13:30 PM

Latest Report: May 1, 2016 at 1:00 PM


Visibility: 10 mi

Pressure: 30.18 "Hg (27.59 "Hg at 765m altitude)

Humidity: 37%

Dew Point: 37 °F

Location of São PauloLocation

Historic Weather in São Paulo — Graph

°F

São Paulo Temperature Yesterday

Maximum temperature yesterday: 72 °F (at 2:00 PM)
Minimum temperature yesterday: 55 °F (at 3:00 AM)
Average temperature yesterday: 61 °F

High & Low Weather Summary for the Past Weeks

 TemperatureHumidityPressure
High88 °F (Apr 16, 3:00 PM)88% (Apr 27, 7:00 AM)30.24 "Hg (Apr 27, 7:00 AM)
Low52 °F (May 1, 6:00 AM)27% (Apr 21, 3:00 PM)29.83 "Hg (Apr 26, 3:00 AM)
Average72 °F62%30.08 "Hg
* Reported Apr 16 12:00 Noon — May 1 12:00 Noon, São Paulo, Weather by CustomWeather, © 2016

Note: Actual official high and low records may vary slightly from our data, if they occured in-between our weather recording intervals... More about our weather records

Advertising

São Paulo Weather History for the Previous 24 Hours

Scroll right to see more
 ConditionsComfort  
Time TempWeatherWind HumidityBarometerVisibility
12:00 PM
Sun, May 1
64 °FSunny.6 mph43%30.21 "Hg10 mi
11:00 AM63 °FPassing clouds.6 mph49%30.24 "HgN/A
10:00 AM59 °FPassing clouds.6 mph59%30.24 "HgN/A
9:00 AM57 °FSunny.6 mph63%30.24 "Hg10 mi
8:00 AM55 °FSunny.9 mph67%30.21 "Hg10 mi
7:00 AM54 °FSunny.5 mph72%30.18 "Hg10 mi
6:00 AM52 °FSunny.5 mph77%30.18 "Hg10 mi
5:00 AM54 °FPassing clouds.8 mph77%30.12 "HgN/A
4:00 AM54 °FPassing clouds.8 mph77%30.12 "HgN/A
3:03 AM54 °FPartly cloudy.9 mph77%30.12 "HgN/A
2:00 AM55 °FMostly cloudy.10 mph77%30.12 "HgN/A
1:00 AM55 °FPartly cloudy.13 mph82%30.12 "HgN/A
12:46 AM55 °FPassing clouds.13 mph82%30.12 "HgN/A
12:00 AM57 °FPartly cloudy.12 mph77%30.15 "HgN/A
11:01 PM
Sat, Apr 30
57 °FLight rain. Passing clouds.12 mph82%30.15 "HgN/A
11:00 PM57 °FPassing clouds.12 mph82%30.15 "HgN/A
10:00 PM59 °FPartly cloudy.10 mph77%30.15 "HgN/A
9:00 PM59 °FPassing clouds.9 mph77%30.15 "HgN/A
8:00 PM61 °FPassing clouds.12 mph77%30.12 "HgN/A
7:00 PM61 °FPassing clouds.10 mph77%30.09 "HgN/A
6:00 PM61 °FPassing clouds.12 mph77%30.07 "HgN/A
5:00 PM64 °FPassing clouds.13 mph68%30.04 "HgN/A
4:00 PM70 °FSunny.9 mph40%30.04 "Hg10 mi
3:00 PM70 °FSunny.8 mph38%30.04 "Hg10 mi
2:00 PM72 °FSunny.14 mph38%30.04 "Hg10 mi
1:00 PM70 °FScattered clouds.8 mph43%30.07 "HgN/A
Weather by CustomWeather, © 2016

See weather overviewHow to use our weather pages